| time (UTC) | temp F | wind direction | speed MPH | gust MPH | rain 1hr in | rain 24hr in | rain mn in | humidity % | barometer mb |
| 20260905191026 | 81 | 0 | 0.0 | 2.0 | 0.00 | 0.00 | 0.00 | 1018.2 | |
| 20260905190525 | 79 | 112 | 0.0 | 2.0 | 0.00 | 0.00 | 0.00 | 1018.2 | |
| 20260905190044 | 72 | 0 | 0.0 | 2.0 | 0.00 | 0.00 | 0.00 | 1018.2 | |
| 20260905185524 | 78 | 0 | 0.0 | 2.0 | 0.00 | 0.00 | 0.00 | 1018.3 | |
| 20260905185024 | 76 | 55 | 0.0 | 2.0 | 0.00 | 0.00 | 0.00 | 1018.4 | |
| 20260905184603 | 74 | 39 | 0.0 | 3.0 | 0.00 | 0.00 | 0.00 | 1018.3 | |
| 20260905184024 | 75 | 46 | 1.0 | 3.0 | 0.00 | 0.00 | 0.00 | 1018.4 | |
| 20260905183526 | 81 | 227 | 0.0 | 3.0 | 0.00 | 0.00 | 0.00 | 1018.6 | |
| 20260905183049 | 80 | 283 | 1.0 | 4.0 | 0.00 | 0.00 | 0.00 | 1018.5 | |
| 20260905182525 | 77 | 72 | 0.0 | 4.0 | 0.00 | 0.00 | 0.00 | 1018.5 | |
| 20260905182028 | 75 | 9 | 0.0 | 4.0 | 0.00 | 0.00 | 0.00 | 1018.5 | |
| 20260905181555 | 72 | 0 | 1.0 | 3.0 | 0.00 | 0.00 | 0.00 | 1018.5 | |
| 20260905181025 | 71 | 0 | 0.0 | 3.0 | 0.00 | 0.00 | 0.00 | 1018.6 | |
| 20260905180526 | 70 | 124 | 0.0 | 4.0 | 0.00 | 0.00 | 0.00 | 1018.6 | |
| 20260905180051 | 70 | 227 | 0.0 | 4.0 | 0.00 | 0.00 | 0.00 | 1018.6 | |
| 20260905175526 | 70 | 99 | 1.0 | 4.0 | 0.00 | 0.00 | 0.00 | 1018.6 | |
| 20260905175024 | 68 | 0 | 0.0 | 3.0 | 0.00 | 0.00 | 0.00 | 1018.5 | |
| 20260905174549 | 67 | 39 | 0.0 | 2.0 | 0.00 | 0.00 | 0.00 | 1018.7 | |
| 20260905174024 | 66 | 0 | 0.0 | 2.0 | 0.00 | 0.00 | 0.00 | 1018.5 | |
| 20260905173525 | 67 | 0 | 0.0 | 3.0 | 0.00 | 0.00 | 0.00 | 1018.7 | |
| 20260905173054 | 66 | 0 | 0.0 | 3.0 | 0.00 | 0.00 | 0.00 | 1018.6 | |
| 20260905172525 | 66 | 0 | 0.0 | 3.0 | 0.00 | 0.00 | 0.00 | 1018.6 | |
| 20260905172025 | 66 | 243 | 1.0 | 4.0 | 0.00 | 0.00 | 0.00 | 1018.7 | |
| 20260905171550 | 65 | 0 | 0.0 | 5.0 | 0.00 | 0.00 | 0.00 | 1018.7 | |
| 20260905171027 | 65 | 28 | 2.0 | 5.0 | 0.00 | 0.00 | 0.00 | 1018.6 | |
| 20260905170527 | 65 | 66 | 3.0 | 5.0 | 0.00 | 0.00 | 0.00 | 1018.7 | |
| 20260905170044 | 63 | 141 | 0.0 | 5.0 | 0.00 | 0.00 | 0.00 | 1018.5 | |
| 20260905165526 | 61 | 99 | 1.0 | 7.0 | 0.00 | 0.00 | 0.00 | 1018.6 | |
| 20260905165028 | 60 | 114 | 3.0 | 7.0 | 0.00 | 0.00 | 0.00 | 1018.5 | |
| 20260905164546 | 59 | 116 | 2.0 | 6.0 | 0.00 | 0.00 | 0.00 | 1018.6 | |
| 20260905164027 | 59 | 344 | 2.0 | 6.0 | 0.00 | 0.00 | 0.00 | 1018.7 | |
| 20260905163524 | 59 | 210 | 2.0 | 6.0 | 0.00 | 0.00 | 0.00 | 1018.6 | |
| 20260905163051 | 60 | 71 | 1.0 | 4.0 | 0.00 | 0.00 | 0.00 | 1018.6 | |
| 20260905162523 | 59 | 99 | 0.0 | 3.0 | 0.00 | 0.00 | 0.00 | 1018.5 | |
| 20260905162028 | 59 | 99 | 1.0 | 4.0 | 0.00 | 0.00 | 0.00 | 1018.6 | |
| 20260905161546 | 58 | 99 | 1.0 | 4.0 | 0.00 | 0.00 | 0.00 | 1018.6 | |
| 20260905161028 | 58 | 0 | 1.0 | 8.0 | 0.00 | 0.00 | 0.00 | 1018.6 | |
| 20260905160524 | 58 | 107 | 2.0 | 9.0 | 0.00 | 0.00 | 0.00 | 1018.6 | |
| 20260905160045 | 57 | 120 | 6.0 | 9.0 | 0.00 | 0.00 | 0.00 | 1018.7 | |
| 20260905155526 | 57 | 99 | 3.0 | 9.0 | 0.00 | 0.00 | 0.00 | 1018.7 | |
| 20260905155023 | 56 | 108 | 6.0 | 9.0 | 0.00 | 0.00 | 0.00 | 1018.7 | |
| 20260905154559 | 56 | 105 | 4.0 | 9.0 | 0.00 | 0.00 | 0.00 | 1018.5 | |
| 20260905154028 | 56 | 115 | 5.0 | 9.0 | 0.00 | 0.00 | 0.00 | 1018.6 | |
| 20260905153528 | 56 | 126 | 4.0 | 8.0 | 0.00 | 0.00 | 0.00 | 1018.6 | |
| 20260905153048 | 55 | 121 | 5.0 | 8.0 | 0.00 | 0.00 | 0.00 | 1018.5 | |
| 20260905152528 | 55 | 103 | 4.0 | 8.0 | 0.00 | 0.00 | 0.00 | 1018.7 | |
| 20260905152025 | 55 | 101 | 2.0 | 7.0 | 0.00 | 0.00 | 0.00 | 1018.7 | |
| 20260905151553 | 55 | 107 | 4.0 | 11.0 | 0.00 | 0.00 | 0.00 | 1018.6 | |
| 20260905151028 | 55 | 118 | 5.0 | 11.0 | 0.00 | 0.00 | 0.00 | 1018.6 | |
| 20260905150527 | 54 | 113 | 8.0 | 11.0 | 0.00 | 0.00 | 0.00 | 1018.7 | |
| 20260905150054 | 54 | 131 | 7.0 | 9.0 | 0.00 | 0.00 | 0.00 | 1018.7 | |
| 20260905145526 | 54 | 101 | 7.0 | 9.0 | 0.00 | 0.00 | 0.00 | 1018.7 | |
| 20260905145027 | 54 | 105 | 5.0 | 8.0 | 0.00 | 0.00 | 0.00 | 1018.7 | |
| 20260905144550 | 54 | 120 | 2.0 | 8.0 | 0.00 | 0.00 | 0.00 | 1018.7 | |
| 20260905144026 | 54 | 112 | 4.0 | 8.0 | 0.00 | 0.00 | 0.00 | 1018.6 | |
| 20260905143527 | 54 | 109 | 5.0 | 8.0 | 0.00 | 0.00 | 0.00 | 1018.7 | |
| 20260905143045 | 54 | 106 | 1.0 | 8.0 | 0.00 | 0.00 | 0.00 | 1018.7 | |
| 20260905142530 | 54 | 99 | 2.0 | 8.0 | 0.00 | 0.00 | 0.00 | 1018.6 | |
| 20260905142027 | 54 | 80 | 5.0 | 10.0 | 0.00 | 0.00 | 0.00 | 1018.6 | |
| 20260905141550 | 54 | 103 | 5.0 | 10.0 | 0.00 | 0.00 | 0.00 | 1018.4 | |
| 20260905141030 | 54 | 101 | 8.0 | 11.0 | 0.00 | 0.00 | 0.00 | 1018.4 | |
| 20260905140527 | 53 | 111 | 7.0 | 11.0 | 0.00 | 0.00 | 0.00 | 1018.6 | |
| 20260905140051 | 53 | 120 | 8.0 | 11.0 | 0.00 | 0.00 | 0.00 | 1018.5 | |
| 20260905135527 | 53 | 113 | 7.0 | 9.0 | 0.00 | 0.00 | 0.00 | 1018.4 | |
| 20260905135025 | 53 | 108 | 5.0 | 9.0 | 0.00 | 0.00 | 0.00 | 1018.4 | |
| 20260905134543 | 53 | 117 | 5.0 | 9.0 | 0.00 | 0.00 | 0.00 | 1018.3 | |
| 20260905134025 | 53 | 120 | 6.0 | 9.0 | 0.00 | 0.00 | 0.00 | 1018.4 | |
| 20260905133524 | 53 | 118 | 5.0 | 8.0 | 0.00 | 0.00 | 0.00 | 1018.4 | |
| 20260905133052 | 53 | 114 | 4.0 | 8.0 | 0.00 | 0.00 | 0.00 | 1018.3 | |
| 20260905132525 | 53 | 108 | 1.0 | 5.0 | 0.00 | 0.00 | 0.00 | 1018.3 | |
| 20260905132025 | 53 | 106 | 3.0 | 5.0 | 0.00 | 0.00 | 0.00 | 1018.3 | |
| 20260905131601 | 53 | 111 | 2.0 | 4.0 | 0.00 | 0.00 | 0.00 | 1018.1 | |
| 20260905131030 | 53 | 116 | 1.0 | 2.0 | 0.00 | 0.00 | 0.00 | 1018.2 | |
| 20260905130524 | 53 | 141 | 0.0 | 2.0 | 0.00 | 0.00 | 0.00 | 1018.1 | |
| 20260905130044 | 53 | 0 | 0.0 | 3.0 | 0.00 | 0.00 | 0.00 | 1018.1 | |
| 20260905125524 | 53 | 0 | 1.0 | 4.0 | 0.00 | 0.00 | 0.00 | 1018.0 | |
| 20260905125024 | 53 | 99 | 1.0 | 7.0 | 0.00 | 0.00 | 0.00 | 1017.9 | |
| 20260905124543 | 53 | 109 | 3.0 | 7.0 | 0.00 | 0.00 | 0.00 | 1018.0 | |
| 20260905124024 | 53 | 110 | 4.0 | 7.0 | 0.00 | 0.00 | 0.00 | 1018.0 | |
| 20260905123526 | 53 | 109 | 3.0 | 5.0 | 0.00 | 0.00 | 0.00 | 1018.0 | |
| 20260905123107 | 53 | 123 | 3.0 | 5.0 | 0.00 | 0.00 | 0.00 | 1018.1 | |
| 20260905122527 | 53 | 116 | 2.0 | 4.0 | 0.00 | 0.00 | 0.00 | 1018.1 | |
| 20260905122024 | 53 | 99 | 0.0 | 2.0 | 0.00 | 0.00 | 0.00 | 1018.1 | |
| 20260905121546 | 53 | 141 | 0.0 | 2.0 | 0.00 | 0.00 | 0.00 | 1018.0 | |
| 20260905121024 | 53 | 112 | 1.0 | 3.0 | 0.00 | 0.00 | 0.00 | 1018.1 | |
| 20260905120524 | 53 | 0 | 1.0 | 3.0 | 0.00 | 0.00 | 0.00 | 1017.9 | |
| 20260905120045 | 53 | 114 | 1.0 | 4.0 | 0.00 | 0.00 | 0.00 | 1017.9 | |
| 20260905115529 | 53 | 0 | 2.0 | 4.0 | 0.00 | 0.00 | 0.00 | 1018.0 | |
| 20260905115026 | 53 | 116 | 2.0 | 4.0 | 0.00 | 0.00 | 0.00 | 1017.9 | |
| 20260905114546 | 53 | 120 | 1.0 | 3.0 | 0.00 | 0.00 | 0.00 | 1018.0 | |
| 20260905114025 | 54 | 0 | 0.0 | 4.0 | 0.00 | 0.00 | 0.00 | 1017.9 | |
| 20260905113525 | 54 | 131 | 1.0 | 4.0 | 0.00 | 0.00 | 0.00 | 1018.0 | |
| 20260905113048 | 53 | 116 | 1.0 | 3.0 | 0.00 | 0.00 | 0.00 | 1017.9 | |
| 20260905112525 | 54 | 141 | 0.0 | 4.0 | 0.00 | 0.00 | 0.00 | 1017.9 | |
| 20260905112024 | 54 | 243 | 0.0 | 5.0 | 0.00 | 0.00 | 0.00 | 1017.9 | |
| 20260905111549 | 54 | 103 | 3.0 | 5.0 | 0.00 | 0.00 | 0.00 | 1017.9 | |
| 20260905111029 | 53 | 124 | 2.0 | 4.0 | 0.00 | 0.00 | 0.00 | 1017.9 | |
| 20260905110529 | 53 | 116 | 2.0 | 4.0 | 0.00 | 0.00 | 0.00 | 1017.8 | |
| 20260905110042 | 53 | 115 | 0.0 | 3.0 | 0.00 | 0.00 | 0.00 | 1018.0 | |
| 20260905105527 | 53 | 268 | 1.0 | 3.0 | 0.00 | 0.00 | 0.00 | 1017.9 | |
| 20260905105029 | 53 | 243 | 0.0 | 5.0 | 0.00 | 0.00 | 0.00 | 1017.9 | |
| 20260905104551 | 53 | 99 | 0.0 | 5.0 | 0.00 | 0.00 | 0.00 | 1017.9 | |
| 20260905104025 | 53 | 116 | 2.0 | 5.0 | 0.00 | 0.00 | 0.00 | 1018.0 | |
| 20260905103525 | 53 | 105 | 2.0 | 6.0 | 0.00 | 0.00 | 0.00 | 1018.0 | |
| 20260905103054 | 53 | 76 | 2.0 | 9.0 | 0.00 | 0.00 | 0.00 | 1018.1 | |
| 20260905102527 | 53 | 103 | 6.0 | 10.0 | 0.00 | 0.00 | 0.00 | 1018.0 | |
| 20260905102025 | 53 | 116 | 6.0 | 10.0 | 0.00 | 0.00 | 0.00 | 1017.9 | |
| 20260905101544 | 53 | 124 | 7.0 | 10.0 | 0.00 | 0.00 | 0.00 | 1017.9 | |
| 20260905101024 | 53 | 134 | 7.0 | 10.0 | 0.00 | 0.00 | 0.00 | 1017.9 | |
| 20260905100527 | 53 | 124 | 4.0 | 8.0 | 0.00 | 0.00 | 0.00 | 1017.8 | |
| 20260905100053 | 53 | 120 | 2.0 | 5.0 | 0.00 | 0.00 | 0.00 | 1017.9 | |
| 20260905095528 | 53 | 183 | 1.0 | 7.0 | 0.00 | 0.00 | 0.00 | 1017.8 | |
| 20260905095027 | 53 | 51 | 3.0 | 7.0 | 0.00 | 0.00 | 0.00 | 1017.8 | |
| 20260905094553 | 53 | 116 | 3.0 | 4.0 | 0.00 | 0.00 | 0.00 | 1017.9 | |
| 20260905094029 | 53 | 128 | 2.0 | 5.0 | 0.00 | 0.00 | 0.00 | 1017.9 | |
| 20260905093525 | 53 | 99 | 2.0 | 5.0 | 0.00 | 0.00 | 0.00 | 1017.9 | |
| 20260905093048 | 53 | 116 | 3.0 | 5.0 | 0.00 | 0.00 | 0.00 | 1017.9 | |
| 20260905092528 | 52 | 136 | 1.0 | 3.0 | 0.00 | 0.00 | 0.00 | 1017.8 | |
| 20260905092028 | 52 | 234 | 1.0 | 3.0 | 0.00 | 0.00 | 0.00 | 1017.8 | |
| 20260905091551 | 53 | 227 | 0.0 | 4.0 | 0.00 | 0.00 | 0.00 | 1017.9 | |
| 20260905091026 | 53 | 131 | 1.0 | 4.0 | 0.00 | 0.00 | 0.00 | 1017.8 | |
| 20260905090527 | 53 | 118 | 2.0 | 3.0 | 0.00 | 0.00 | 0.00 | 1017.8 | |
| 20260905090051 | 53 | 147 | 1.0 | 3.0 | 0.00 | 0.00 | 0.00 | 1017.8 | |
| 20260905085524 | 53 | 128 | 1.0 | 3.0 | 0.00 | 0.00 | 0.00 | 1017.7 | |
| 20260905085026 | 53 | 134 | 1.0 | 4.0 | 0.00 | 0.00 | 0.00 | 1017.7 | |
| 20260905084553 | 52 | 216 | 1.0 | 4.0 | 0.00 | 0.00 | 0.00 | 1017.8 | |
| 20260905084028 | 53 | 264 | 1.0 | 4.0 | 0.00 | 0.00 | 0.00 | 1017.6 | |
| 20260905083535 | 53 | 124 | 1.0 | 3.0 | 0.00 | 0.00 | 0.00 | 1017.6 | |
| 20260905083049 | 53 | 103 | 2.0 | 4.0 | 0.00 | 0.00 | 0.00 | 1017.6 | |
| 20260905082524 | 52 | 141 | 1.0 | 5.0 | 0.00 | 0.00 | 0.00 | 1017.6 | |
| 20260905082028 | 52 | 268 | 2.0 | 5.0 | 0.00 | 0.00 | 0.00 | 1017.7 | |
| 20260905081543 | 53 | 243 | 1.0 | 4.0 | 0.00 | 0.00 | 0.00 | 1017.6 | |
| 20260905081029 | 53 | 151 | 1.0 | 4.0 | 0.00 | 0.00 | 0.00 | 1017.6 | |
| 20260905080542 | 53 | 268 | 1.0 | 4.0 | 0.00 | 0.00 | 0.00 | 1017.6 | |
| 20260905080128 | 53 | 274 | 1.0 | 4.0 | 0.00 | 0.00 | 0.00 | 1017.6 | |
| 20260905075528 | 53 | 275 | 2.0 | 6.0 | 0.00 | 0.00 | 0.00 | 1017.6 | |
| 20260905075025 | 54 | 273 | 3.0 | 6.0 | 0.00 | 0.00 | 0.00 | 1017.7 | |
| 20260905074550 | 54 | 274 | 3.0 | 6.0 | 0.00 | 0.00 | 0.00 | 1017.6 | |
| 20260905074027 | 54 | 263 | 2.0 | 5.0 | 0.00 | 0.00 | 0.00 | 1017.5 | |
| 20260905073527 | 54 | 278 | 2.0 | 5.0 | 0.00 | 0.00 | 0.00 | 1017.4 | |
| 20260905073045 | 54 | 268 | 3.0 | 5.0 | 0.00 | 0.00 | 0.00 | 1017.5 | |
| 20260905072530 | 53 | 247 | 2.0 | 4.0 | 0.00 | 0.00 | 0.00 | 1017.4 | |
| 20260905072029 | 53 | 264 | 2.0 | 4.0 | 0.00 | 0.00 | 0.00 | 1017.4 | |
| 20260905071542 | 54 | 264 | 2.0 | 4.0 | 0.00 | 0.00 | 0.00 | 1017.4 | |
| 20260905071028 | 54 | 268 | 2.0 | 4.0 | 0.00 | 0.00 | 0.00 | 1017.4 | |
| 20260905070530 | 54 | 263 | 1.0 | 4.0 | 0.00 | 0.00 | 0.00 | 1017.2 | |
| 20260905070057 | 54 | 221 | 1.0 | 3.0 | 0.00 | 0.00 | 0.00 | 1017.2 | |
| 20260905065529 | 54 | 239 | 1.0 | 3.0 | 0.00 | 0.00 | 0.00 | 1017.2 | |
| 20260905065026 | 54 | 252 | 1.0 | 2.0 | 0.00 | 0.00 | 0.00 | 1017.2 | |
| 20260905064553 | 54 | 227 | 1.0 | 2.0 | 0.00 | 0.00 | 0.00 | 1017.3 | |
| 20260905064028 | 53 | 227 | 1.0 | 3.0 | 0.00 | 0.00 | 0.00 | 1017.1 | |
| 20260905063525 | 54 | 268 | 1.0 | 3.0 | 0.00 | 0.00 | 0.00 | 1017.2 | |
| 20260905063047 | 54 | 268 | 1.0 | 3.0 | 0.00 | 0.00 | 0.00 | 1017.3 | |
| 20260905062524 | 54 | 219 | 1.0 | 3.0 | 0.00 | 0.00 | 0.00 | 1017.0 | |
| 20260905062025 | 54 | 276 | 2.0 | 4.0 | 0.00 | 0.00 | 0.00 | 1017.1 | |
| 20260905061558 | 53 | 276 | 2.0 | 4.0 | 0.00 | 0.00 | 0.00 | 1017.1 | |
| 20260905061032 | 53 | 247 | 2.0 | 5.0 | 0.00 | 0.00 | 0.00 | 1017.1 | |
| 20260905060528 | 53 | 240 | 2.0 | 5.0 | 0.00 | 0.00 | 0.00 | 1017.0 | |
| 20260905060104 | 53 | 261 | 2.0 | 4.0 | 0.00 | 0.00 | 0.00 | 1017.1 | |
| 20260905055527 | 54 | 252 | 1.0 | 3.0 | 0.00 | 0.00 | 0.00 | 1017.1 | |
| 20260905055028 | 53 | 176 | 1.0 | 4.0 | 0.00 | 0.00 | 0.00 | 1017.0 | |
| 20260905054554 | 53 | 227 | 1.0 | 4.0 | 0.00 | 0.00 | 0.00 | 1017.0 | |
| 20260905054028 | 53 | 265 | 1.0 | 4.0 | 0.00 | 0.00 | 0.00 | 1017.0 | |
| 20260905053528 | 53 | 261 | 1.0 | 4.0 | 0.00 | 0.00 | 0.00 | 1017.1 | |
| 20260905053056 | 53 | 255 | 2.0 | 4.0 | 0.00 | 0.00 | 0.00 | 1017.0 | |
| 20260905052527 | 53 | 239 | 2.0 | 4.0 | 0.00 | 0.00 | 0.00 | 1017.0 | |
| 20260905052025 | 53 | 112 | 1.0 | 4.0 | 0.00 | 0.00 | 0.00 | 1016.8 | |
| 20260905051552 | 53 | 250 | 1.0 | 4.0 | 0.00 | 0.00 | 0.00 | 1016.8 | |
| 20260905051028 | 53 | 216 | 1.0 | 4.0 | 0.00 | 0.00 | 0.00 | 1017.0 | |
| 20260905050529 | 53 | 232 | 1.0 | 5.0 | 0.00 | 0.00 | 0.00 | 1016.9 | |
| 20260905050045 | 53 | 222 | 1.0 | 5.0 | 0.00 | 0.00 | 0.00 | 1016.8 | |
| 20260905045523 | 53 | 255 | 2.0 | 5.0 | 0.00 | 0.00 | 0.00 | 1016.9 | |
| 20260905045027 | 53 | 268 | 3.0 | 5.0 | 0.00 | 0.00 | 0.00 | 1016.8 | |
| 20260905044552 | 53 | 279 | 2.0 | 4.0 | 0.00 | 0.00 | 0.00 | 1016.8 | |
| 20260905044024 | 54 | 268 | 2.0 | 4.0 | 0.00 | 0.00 | 0.00 | 1017.0 | |
| 20260905043524 | 54 | 243 | 1.0 | 3.0 | 0.00 | 0.00 | 0.00 | 1016.9 | |
| 20260905043105 | 54 | 166 | 1.0 | 4.0 | 0.00 | 0.00 | 0.00 | 1017.0 | |
| 20260905042528 | 54 | 158 | 1.0 | 4.0 | 0.00 | 0.00 | 0.00 | 1016.7 | |
| 20260905042024 | 54 | 268 | 2.0 | 4.0 | 0.00 | 0.00 | 0.00 | 1016.9 | |
| 20260905041544 | 54 | 273 | 1.0 | 6.0 | 0.00 | 0.00 | 0.00 | 1016.9 | |
| 20260905041025 | 54 | 295 | 2.0 | 6.0 | 0.00 | 0.00 | 0.00 | 1016.8 | |
| 20260905040526 | 54 | 280 | 2.0 | 5.0 | 0.00 | 0.00 | 0.00 | 1016.9 | |
| 20260905040052 | 54 | 265 | 3.0 | 5.0 | 0.00 | 0.00 | 0.00 | 1016.7 | |
| 20260905035525 | 54 | 276 | 3.0 | 5.0 | 0.00 | 0.00 | 0.00 | 1016.7 | |
| 20260905035026 | 54 | 276 | 3.0 | 6.0 | 0.00 | 0.00 | 0.00 | 1016.5 | |
| 20260905034544 | 54 | 290 | 4.0 | 6.0 | 0.00 | 0.00 | 0.00 | 1016.5 | |
| 20260905034024 | 54 | 277 | 3.0 | 6.0 | 0.00 | 0.00 | 0.00 | 1016.6 | |
| 20260905033523 | 54 | 280 | 2.0 | 5.0 | 0.00 | 0.00 | 0.00 | 1016.4 | |
| 20260905033044 | 54 | 285 | 2.0 | 4.0 | 0.00 | 0.00 | 0.00 | 1016.4 | |
| 20260905032529 | 54 | 283 | 2.0 | 4.0 | 0.00 | 0.00 | 0.00 | 1016.3 | |
| 20260905032025 | 53 | 273 | 3.0 | 4.0 | 0.00 | 0.00 | 0.00 | 1016.3 | |
| 20260905031544 | 53 | 176 | 3.0 | 4.0 | 0.00 | 0.00 | 0.00 | 1016.2 | |
| 20260905031027 | 54 | 176 | 3.0 | 4.0 | 0.00 | 0.00 | 0.00 | 1016.2 | |
| 20260905030525 | 54 | 176 | 3.0 | 4.0 | 0.00 | 0.00 | 0.00 | 1016.3 | |
| 20260905030053 | 54 | 176 | 3.0 | 4.0 | 0.00 | 0.00 | 0.00 | 1016.2 | |
| 20260905025523 | 54 | 176 | 3.0 | 4.0 | 0.00 | 0.00 | 0.00 | 1016.4 | |
| 20260905025027 | 54 | 176 | 3.0 | 4.0 | 0.00 | 0.00 | 0.00 | 1016.3 | |
| 20260905024547 | 54 | 176 | 3.0 | 4.0 | 0.00 | 0.00 | 0.00 | 1016.3 | |
| 20260905024025 | 54 | 176 | 3.0 | 4.0 | 0.00 | 0.00 | 0.00 | 1016.3 | |
| 20260905023531 | 54 | 176 | 3.0 | 4.0 | 0.00 | 0.00 | 0.00 | 1016.3 | |
| 20260905023045 | 54 | 176 | 3.0 | 4.0 | 0.00 | 0.00 | 0.00 | 1016.3 | |
| 20260905022526 | 55 | 176 | 3.0 | 4.0 | 0.00 | 0.00 | 0.00 | 1016.4 | |
| 20260905022026 | 55 | 176 | 3.0 | 4.0 | 0.00 | 0.00 | 0.00 | 1016.3 | |
| 20260905021553 | 55 | 176 | 3.0 | 4.0 | 0.00 | 0.00 | 0.00 | 1016.3 | |
| 20260905021024 | 55 | 176 | 3.0 | 4.0 | 0.00 | 0.00 | 0.00 | 1016.3 | |
| 20260905020527 | 55 | 176 | 3.0 | 4.0 | 0.00 | 0.00 | 0.00 | 1016.2 | |
| 20260905020053 | 55 | 176 | 3.0 | 4.0 | 0.00 | 0.00 | 0.00 | 1016.2 | |
| 20260905015540 | 55 | 176 | 3.0 | 4.0 | 0.00 | 0.00 | 0.00 | 1016.1 | |
| 20260905015026 | 55 | 176 | 3.0 | 4.0 | 0.00 | 0.00 | 0.00 | 1016.0 | |
| 20260905014544 | 55 | 176 | 3.0 | 4.0 | 0.00 | 0.00 | 0.00 | 1016.1 | |
| 20260905014029 | 56 | 176 | 3.0 | 4.0 | 0.00 | 0.00 | 0.00 | 1016.0 | |
| 20260905013525 | 56 | 176 | 3.0 | 4.0 | 0.00 | 0.00 | 0.00 | 1015.9 | |
| 20260905013050 | 55 | 176 | 3.0 | 4.0 | 0.00 | 0.00 | 0.00 | 1015.9 | |
| 20260905012526 | 56 | 176 | 3.0 | 4.0 | 0.00 | 0.00 | 0.00 | 1015.8 | |
| 20260905012025 | 56 | 176 | 3.0 | 4.0 | 0.00 | 0.00 | 0.00 | 1015.8 | |
| 20260905011610 | 58 | 176 | 3.0 | 4.0 | 0.00 | 0.00 | 0.00 | 1015.6 | |
| 20260905011025 | 59 | 176 | 3.0 | 4.0 | 0.00 | 0.00 | 0.00 | 1015.7 | |
| 20260905010528 | 62 | 176 | 3.0 | 4.0 | 0.00 | 0.00 | 0.00 | 1015.5 | |
| 20260905010047 | 63 | 176 | 3.0 | 4.0 | 0.00 | 0.00 | 0.00 | 1015.5 | |
| 20260905005525 | 66 | 176 | 3.0 | 4.0 | 0.00 | 0.00 | 0.00 | 1015.6 | |
| 20260905005028 | 69 | 176 | 3.0 | 4.0 | 0.00 | 0.00 | 0.00 | 1015.6 | |
| 20260905004545 | 65 | 176 | 3.0 | 4.0 | 0.00 | 0.00 | 0.00 | 1015.6 | |
| 20260905004028 | 61 | 176 | 3.0 | 4.0 | 0.00 | 0.00 | 0.00 | 1015.5 | |
| 20260905003528 | 61 | 176 | 3.0 | 4.0 | 0.00 | 0.00 | 0.00 | 1015.6 | |
| 20260905003056 | 60 | 176 | 3.0 | 4.0 | 0.00 | 0.00 | 0.00 | 1015.4 | |
| 20260905002526 | 60 | 176 | 3.0 | 4.0 | 0.00 | 0.00 | 0.00 | 1015.6 | |
| 20260905002028 | 60 | 176 | 3.0 | 4.0 | 0.00 | 0.00 | 0.00 | 1015.6 | |
| 20260905001553 | 60 | 176 | 3.0 | 4.0 | 0.00 | 0.00 | 0.00 | 1015.6 | |
| 20260905001027 | 59 | 176 | 3.0 | 4.0 | 0.00 | 0.00 | 0.00 | 1015.7 | |
| 20260905000526 | 58 | 176 | 3.0 | 4.0 | 0.00 | 0.00 | 0.00 | 1015.6 | |
| 20260905000048 | 58 | 176 | 3.0 | 4.0 | 0.00 | 0.00 | 0.00 | 1015.7 | |
| 20260904235527 | 58 | 176 | 3.0 | 4.0 | 0.00 | 0.00 | 0.00 | 1015.6 | |
| 20260904235027 | 58 | 176 | 3.0 | 4.0 | 0.00 | 0.00 | 0.00 | 1015.6 | |
| 20260904234546 | 57 | 176 | 3.0 | 4.0 | 0.00 | 0.00 | 0.00 | 1015.5 | |
| 20260904234028 | 57 | 176 | 3.0 | 4.0 | 0.00 | 0.00 | 0.00 | 1015.6 | |
| 20260904233530 | 57 | 176 | 3.0 | 4.0 | 0.00 | 0.00 | 0.00 | 1015.4 | |
| 20260904233053 | 56 | 176 | 3.0 | 4.0 | 0.00 | 0.00 | 0.00 | 1015.5 | |
| 20260904232530 | 56 | 176 | 3.0 | 4.0 | 0.00 | 0.00 | 0.00 | 1015.5 | |
| 20260904232027 | 56 | 176 | 3.0 | 4.0 | 0.00 | 0.00 | 0.00 | 1015.5 | |
| 20260904231551 | 56 | 176 | 3.0 | 4.0 | 0.00 | 0.00 | 0.00 | 1015.5 | |
| 20260904231027 | 57 | 176 | 3.0 | 4.0 | 0.00 | 0.00 | 0.00 | 1015.4 | |
| 20260904230531 | 56 | 176 | 3.0 | 4.0 | 0.00 | 0.00 | 0.00 | 1015.5 | |
| 20260904230049 | 56 | 176 | 3.0 | 4.0 | 0.00 | 0.00 | 0.00 | 1015.4 | |
| 20260904225525 | 55 | 176 | 3.0 | 4.0 | 0.00 | 0.00 | 0.00 | 1015.5 | |
| 20260904225025 | 55 | 176 | 3.0 | 4.0 | 0.00 | 0.00 | 0.00 | 1015.3 | |
| 20260904224548 | 54 | 176 | 3.0 | 4.0 | 0.00 | 0.00 | 0.00 | 1015.4 | |
| 20260904224027 | 53 | 176 | 3.0 | 4.0 | 0.00 | 0.00 | 0.00 | 1015.5 | |
| 20260904223526 | 53 | 176 | 3.0 | 4.0 | 0.00 | 0.00 | 0.00 | 1015.5 | |
| 20260904223044 | 53 | 176 | 3.0 | 4.0 | 0.00 | 0.00 | 0.00 | 1015.4 | |
| 20260904222528 | 52 | 176 | 3.0 | 4.0 | 0.00 | 0.00 | 0.00 | 1015.4 | |
| 20260904222025 | 52 | 176 | 3.0 | 4.0 | 0.00 | 0.00 | 0.00 | 1015.4 | |
| 20260904221556 | 53 | 176 | 3.0 | 9.0 | 0.00 | 0.00 | 0.00 | 1015.3 | |
| 20260904221027 | 53 | 176 | 3.0 | 9.0 | 0.00 | 0.00 | 0.00 | 1015.4 | |
| 20260904220527 | 52 | 128 | 5.0 | 12.0 | 0.00 | 0.00 | 0.00 | 1015.6 | |
| 20260904220105 | 53 | 164 | 2.0 | 12.0 | 0.00 | 0.00 | 0.00 | 1015.5 | |
| 20260904215530 | 53 | 190 | 7.0 | 16.0 | 0.00 | 0.00 | 0.00 | 1015.3 | |
| 20260904215026 | 53 | 172 | 7.0 | 16.0 | 0.00 | 0.00 | 0.00 | 1015.3 | |
| 20260904214551 | 58 | 160 | 7.0 | 16.0 | 0.00 | 0.00 | 0.00 | 1015.3 | |
| 20260904214028 | 61 | 109 | 8.0 | 16.0 | 0.00 | 0.00 | 0.00 | 1015.2 | |
| 20260904213531 | 62 | 100 | 9.0 | 16.0 | 0.00 | 0.00 | 0.00 | 1014.8 | |
| 20260904213053 | 62 | 128 | 9.0 | 15.0 | 0.00 | 0.00 | 0.00 | 1014.6 | |
| 20260904212529 | 62 | 99 | 7.0 | 15.0 | 0.00 | 0.00 | 0.00 | 1014.3 | |
| 20260904212028 | 62 | 121 | 4.0 | 14.0 | 0.00 | 0.00 | 0.00 | 1014.4 | |
| 20260904211545 | 63 | 135 | 4.0 | 15.0 | 0.00 | 0.00 | 0.00 | 1014.5 | |
| 20260904211030 | 62 | 121 | 9.0 | 15.0 | 0.00 | 0.00 | 0.00 | 1014.4 | |
| 20260904210526 | 63 | 118 | 4.0 | 14.0 | 0.00 | 0.00 | 0.00 | 1014.3 | |
| 20260904210048 | 64 | 231 | 7.0 | 14.0 | 0.00 | 0.00 | 0.00 | 1014.3 | |
| 20260904205529 | 64 | 123 | 6.0 | 14.0 | 0.00 | 0.00 | 0.00 | 1014.3 | |
| 20260904205028 | 65 | 59 | 5.0 | 14.0 | 0.00 | 0.00 | 0.00 | 1014.3 | |
| 20260904204553 | 65 | 116 | 7.0 | 14.0 | 0.00 | 0.00 | 0.00 | 1014.1 | |
| 20260904204027 | 66 | 68 | 6.0 | 15.0 | 0.00 | 0.00 | 0.00 | 1014.1 | |
| 20260904203527 | 67 | 105 | 5.0 | 15.0 | 0.00 | 0.00 | 0.00 | 1014.0 | |
| 20260904203050 | 69 | 101 | 6.0 | 13.0 | 0.00 | 0.00 | 0.00 | 1014.1 | |
| 20260904202526 | 72 | 268 | 5.0 | 15.0 | 0.00 | 0.00 | 0.00 | 1014.1 | |
| 20260904202025 | 73 | 295 | 4.0 | 16.0 | 0.00 | 0.00 | 0.00 | 1014.0 | |
| 20260904201606 | 74 | 141 | 5.0 | 16.0 | 0.00 | 0.00 | 0.00 | 1014.0 | |
| 20260904201031 | 73 | 360 | 6.0 | 16.0 | 0.00 | 0.00 | 0.00 | 1014.0 | |
| 20260904200528 | 72 | 243 | 5.0 | 16.0 | 0.00 | 0.00 | 0.00 | 1014.1 | |
| 20260904200050 | 70 | 15 | 7.0 | 17.0 | 0.00 | 0.00 | 0.00 | 1014.0 | |
| 20260904195529 | 69 | 22 | 8.0 | 17.0 | 0.00 | 0.00 | 0.00 | 1014.1 | |
| 20260904195026 | 67 | 99 | 7.0 | 19.0 | 0.00 | 0.00 | 0.00 | 1014.1 | |
| 20260904194543 | 67 | 42 | 8.0 | 19.0 | 0.00 | 0.00 | 0.00 | 1014.2 | |
| 20260904194031 | 65 | 68 | 7.0 | 18.0 | 0.00 | 0.00 | 0.00 | 1014.3 | |
| 20260904193527 | 66 | 114 | 9.0 | 18.0 | 0.00 | 0.00 | 0.00 | 1014.4 | |
| 20260904193050 | 66 | 117 | 9.0 | 18.0 | 0.00 | 0.00 | 0.00 | 1014.4 | |
| 20260904192533 | 67 | 110 | 12.0 | 18.0 | 0.00 | 0.00 | 0.00 | 1014.6 | |
| 20260904192028 | 73 | 117 | 9.0 | 18.0 | 0.00 | 0.00 | 0.00 | 1014.5 | |
| 20260904191544 | 72 | 103 | 10.0 | 20.0 | 0.00 | 0.00 | 0.00 | 1014.5 |